Anchorage Merrill, AK

10:43 PM AKDT on May 28, 2017 (GMT -0800)
Merrill

Weather History for PAMR - November, 2012

Change the Weather History Date:

Monday, November 12, 2012

  Actual Average Record
Temperature  
Mean Temperature 26 °F -  
Max Temperature 33 °F 28 °F 45 °F (1993)
Min Temperature 19 °F 18 °F 1 °F (2006)
Degree Days  
Heating Degree Days 39    
Moisture  
Dew Point 26 °F    
Average Humidity 96    
Maximum Humidity 100    
Minimum Humidity 86    
Precipitation  
Precipitation 0.00 in - - ()
Sea Level Pressure  
Sea Level Pressure 29.96 in    
Wind  
Wind Speed 1 mph (NW)    
Max Wind Speed 4 mph    
Max Gust Speed -    
Visibility 6 miles    
Events Fog    
Averages and records for this station are not official NWS values.
T = Trace of Precipitation, MM = Missing Value Source: NWS Daily Summary

Daily Weather History Graph

Daily Weather History Graph

Search for Another Location

Airport or City:

Trip Planner

Search our weather history database for the weather conditions in past years. The results will help you decide how hot, cold, wet, or windy it might be!

Date:

Astronomy

Nov. 12, 2012 Rise Set
Actual Time 8:59 AM AKST 4:27 PM AKST
Civil Twilight 8:08 AM AKST 5:18 PM AKST
Nautical Twilight 7:14 AM AKST 6:11 PM AKST
Astronomical Twilight 6:23 AM AKST 7:02 PM AKST
Moon 7:25 AM AKST (11/12) 3:45 PM AKST (11/12)
Length of Visible Light 9h 10m
Length of Day
7h 28m
Waning Crescent, 2% of the Moon is Illuminated
Nov 12
Waning Crescent
Nov 13
New
Nov 20
First Quarter
Nov 28
Full
Dec 6
Last Quarter

Hourly Weather History & Observations

Time (AKST) Temp. Windchill Dew Point Humidity Pressure Visibility Wind Dir Wind Speed Gust Speed Precip Events Conditions
12:53 AM 30.0 °F - 28.0 °F 92% 29.81 in 9.0 mi Calm Calm - N/A   Overcast
1:53 AM 30.0 °F - 28.9 °F 96% 29.82 in 8.0 mi Calm Calm - N/A   Overcast
3:53 AM 30.0 °F - 28.9 °F 96% 29.85 in 8.0 mi Calm Calm - N/A   Overcast
4:53 AM 28.9 °F - 28.0 °F 96% 29.84 in 8.0 mi Calm Calm - N/A   Overcast
5:53 AM 30.0 °F - 28.0 °F 92% 29.85 in 10.0 mi Calm Calm - N/A   Overcast
6:35 AM 30.2 °F - 30.2 °F 100% 29.86 in 7.0 mi Calm Calm - N/A   Overcast
6:53 AM 30.9 °F 27.5 °F 30.0 °F 96% 29.87 in 8.0 mi ENE 3.5 mph - N/A   Overcast
7:53 AM 30.9 °F - 28.9 °F 92% 29.88 in 10.0 mi Calm Calm - N/A   Scattered Clouds
8:53 AM 28.9 °F - 28.0 °F 96% 29.90 in 9.0 mi Calm Calm - N/A   Overcast
9:53 AM 30.0 °F - 28.0 °F 92% 29.92 in 9.0 mi Calm Calm - N/A   Overcast
10:53 AM 30.0 °F - 28.9 °F 96% 29.94 in 6.0 mi Calm Calm - N/A   Mostly Cloudy
11:53 AM 33.1 °F - 30.0 °F 89% 29.95 in 9.0 mi Calm Calm - N/A   Mostly Cloudy
12:31 PM 30.2 °F 26.7 °F 30.2 °F 100% 29.95 in 2.5 mi WNW 3.5 mph - N/A   Scattered Clouds
12:39 PM 30.2 °F 26.7 °F 30.2 °F 100% 29.95 in 1.0 mi WNW 3.5 mph - N/A   Mostly Cloudy
12:42 PM 30.2 °F 26.7 °F 30.2 °F 100% 29.95 in 1.0 mi WNW 3.5 mph - N/A   Mostly Cloudy
12:53 PM 30.9 °F 27.5 °F 30.0 °F 96% 29.96 in 1.0 mi WNW 3.5 mph - N/A   Mostly Cloudy
1:03 PM 30.2 °F 26.7 °F 30.2 °F 100% 29.95 in 1.0 mi WNW 3.5 mph - N/A   Mostly Cloudy
1:17 PM 30.2 °F 26.7 °F 30.2 °F 100% 29.95 in 2.0 mi WNW 3.5 mph - N/A Fog Light Freezing Fog
1:46 PM 30.2 °F 26.7 °F 30.2 °F 100% 29.96 in 2.0 mi WNW 3.5 mph - N/A   Mostly Cloudy
1:53 PM 30.9 °F - 30.9 °F 100% 29.97 in 3.0 mi Calm Calm - N/A Fog Light Freezing Fog
2:53 PM 32.0 °F - 30.9 °F 96% 29.97 in 7.0 mi Calm Calm - N/A Fog Light Freezing Fog
3:53 PM 28.0 °F - 28.0 °F 100% 29.97 in 7.0 mi Calm Calm - N/A Fog Light Freezing Fog
4:26 PM 26.6 °F - 26.6 °F 100% 29.98 in 7.0 mi Calm Calm - N/A Fog Light Freezing Fog
4:28 PM 26.6 °F - 26.6 °F 100% 29.98 in 0.5 mi Calm Calm - N/A Fog Light Freezing Fog
4:31 PM 26.6 °F - 26.6 °F 100% 29.98 in 1.0 mi Calm Calm - N/A Fog Light Freezing Fog
4:53 PM 24.1 °F 19.7 °F 23.0 °F 96% 29.99 in 5.0 mi East 3.5 mph - N/A Fog Light Freezing Fog
5:53 PM 27.0 °F - 26.1 °F 96% 30.00 in 5.0 mi Calm Calm - N/A Fog Light Freezing Fog
6:53 PM 26.1 °F - 25.0 °F 96% 30.01 in 6.0 mi Calm Calm - N/A Fog Light Freezing Fog
7:05 PM 24.8 °F 20.5 °F 23.0 °F 93% 30.00 in 4.0 mi East 3.5 mph - N/A Fog Light Freezing Fog
7:53 PM 24.1 °F - 21.9 °F 91% 30.02 in 9.0 mi Calm Calm - N/A Fog Light Freezing Fog
8:53 PM 24.1 °F - 23.0 °F 96% 30.04 in 10.0 mi Calm Calm - N/A Fog Light Freezing Fog
9:30 PM 21.2 °F - 19.4 °F 93% 30.04 in 9.0 mi Calm Calm - N/A   Scattered Clouds
9:34 PM 21.2 °F - 19.4 °F 93% 30.04 in 9.0 mi Calm Calm - N/A   Scattered Clouds
9:53 PM 23.0 °F - 21.0 °F 92% 30.04 in 9.0 mi Calm Calm - N/A   Scattered Clouds
10:12 PM 21.2 °F - 19.4 °F 93% 30.03 in 4.0 mi Calm Calm - N/A Fog Scattered Clouds
10:24 PM 21.2 °F - 21.2 °F 100% 30.04 in 4.0 mi Calm Calm - N/A Fog Mostly Cloudy
10:41 PM 23.0 °F - 19.4 °F 86% 30.04 in 4.0 mi Calm Calm - N/A Fog Scattered Clouds
10:51 PM 21.2 °F - 19.4 °F 93% 30.04 in 3.0 mi Calm Calm - N/A Fog Mostly Cloudy
10:53 PM 19.9 °F - 19.9 °F 100% 30.05 in 3.0 mi Calm Calm - N/A Fog Mostly Cloudy
11:21 PM 21.2 °F - 19.4 °F 93% 30.04 in 5.0 mi Calm Calm - N/A   Scattered Clouds
11:53 PM 21.9 °F - 21.0 °F 96% 30.06 in 7.0 mi Calm Calm - N/A Fog Patches of Fog